Lexington Weather

Lexington, Massachusetts, USA

54°F
12/10/2019 4:32pm 
  • Lexington Conditions: Light rain, Overcast
  • Temperature: 54.0°F / 12.2°CColder 0.7°F than last hour.
  • Dew Point: 52.5°FDecreased 0.2°Fsince last hour.
  • Relative Humidity: 95%Increased 2.0% since last hour.
  • Wind: Wind from WSW WSW 4 mph, 10-min avg: 3 mph, gust: 11 mph
  • Barometer: 29.71 inRising 0.03  inHg/hr Rising Slowly
  • Visibility: 10 miles
  • Rain Today: 0.04 in
  •   

Regional Weather Roundup
for Boston / Norton, MA

        
000
ASUS41 KBOX 081610
RWRBOX

REGIONAL WEATHER ROUNDUP
NATIONAL WEATHER SERVICE BOSTON/NORTON MA
1100 AM EST SUN DEC 08 2019

NOTE:  "FAIR" INDICATES FEW OR NO CLOUDS BELOW 12,000 FEET WITH NO 
SIGNIFICANT WEATHER AND/OR OBSTRUCTIONS TO VISIBILITY.

MAZALL-081700-
EASTERN MASSACHUSETTS
  
CITY           SKY/WX    TMP DP  RH WIND       PRES   REMARKS
BOSTON         FAIR      32  12  43 SW12      30.52F WCI  23          
BEVERLY        FAIR      28  10  46 SW8       30.51F WCI  20          
LAWRENCE       FAIR      25  13  60 SW5       30.52F WCI  19          
BEDFORD        FAIR      26   9  48 SW8       30.50F WCI  18          
BLUE HILL        N/A     28  11  48 S10       30.47F WCI  19          
NORWOOD        FAIR      33  14  45 S7        30.51F WCI  27          
MARSHFIELD     FAIR      32  10  40 VRB7      30.52F WCI  26          
PLYMOUTH       FAIR      30  15  53 SW9       30.52F WCI  22          
TAUNTON        FAIR      31  14  49 SW6       30.53F WCI  25          
NEW BEDFORD    FAIR      32  16  51 S8        30.53F WCI  25          
$$

MAZALL-081700-
CAPE COD AND THE ISLANDS
  
CITY           SKY/WX    TMP DP  RH WIND       PRES   REMARKS
FALMOUTH       SUNNY     32  12  43 SW6       30.54F WCI  26          
HYANNIS        FAIR      33   9  36 SW8       30.53F WCI  26          
CHATHAM        FAIR      33  21  61 SW6       30.55F WCI  28          
PROVINCETOWN   FAIR      32  17  54 SW10      30.54F WCI  24          
NANTUCKET      FAIR      34  19  54 VRB3      30.55F                  
MARTHAS VNYRD  FAIR      34  20  56 S8        30.54F WCI  27          
$$
 
MAZALL-081700-
CENTRAL AND WESTERN MASSACHUSETTS
  
CITY           SKY/WX    TMP DP  RH WIND       PRES   REMARKS
WORCESTER      FAIR      25   7  46 SW8       30.44F WCI  16          
FITCHBURG      FAIR      24  15  68 CALM      30.48F                  
ORANGE         FOG       15  12  88 CALM      30.49F VSB<1/4          
SPRINGFIELD    PTSUNNY   16  11  78 CALM      30.50F                  
WESTFIELD      FAIR      19  11  70 SW3       30.51F                  
NORTH ADAMS    FAIR      19  10  68 E10       30.46F WCI   7          
PITTSFIELD     FAIR      20  11  68 CALM      30.41F                  
$$
 
RIZALL-081700-
RHODE ISLAND
  
CITY           SKY/WX    TMP DP  RH WIND       PRES   REMARKS
PROVIDENCE     FAIR      31  16  54 S9        30.53F WCI  23          
NEWPORT        FAIR      33  21  61 SE7       30.52F WCI  27          
BLOCK ISLAND   FAIR      35  21  56 S5        30.53F WCI  31          
SMITHFIELD     FAIR      30  12  47 VRB5      30.50F WCI  25          
WESTERLY       FAIR      35  22  58 S7        30.54F WCI  29          
$$
 
CTZALL-081700-
CONNECTICUT
  
CITY           SKY/WX    TMP DP  RH WIND       PRES   REMARKS
BRADLEY INTL   PTSUNNY   27  14  58 CALM      30.52F                  
HARTFORD       FAIR      27  16  63 SE3       30.53F                  
BRIDGEPORT     FAIR      32  20  61 E5        30.54F WCI  27          
DANBURY        FAIR      32  16  51 CALM      30.50F                  
GROTON         FAIR      33  22  63 SE5       30.53F WCI  29          
NEW HAVEN      FAIR      35  16  45 VRB3      30.53F                  
CHESTER        FAIR      32  10  40 S6        30.51F WCI  26          
MERIDEN        FAIR      30  17  58 SE3       30.53F                  
WILLIMANTIC    FAIR      25  14  63 CALM      30.54F                  
OXFORD         FAIR      30  24  78 VRB6      30.49F WCI  24          
$$

MEZ002-015-021-024-NHZ003-005-008-011-012-014-VTZ005-008-081700-
NORTHERN NEW ENGLAND
  
CITY           SKY/WX    TMP DP  RH WIND       PRES   REMARKS
PORTLAND ME    FAIR      28  11  48 S7        30.49F WCI  21          
BANGOR ME      FAIR      22  12  65 S3        30.46F                  
CONCORD NH     FAIR      17  13  84 CALM      30.48F                  
MANCHESTER NH  FAIR      19  13  77 CALM      30.48F                  
NASHUA NH      FAIR      26  16  65 E5        30.50F WCI  20          
PORTSMOUTH NH  MOSUNNY   25   8  49 S5        30.49F WCI  19          
JAFFREY NH     FAIR      22  10  60 SW6       30.42F WCI  14          
KEENE NH       FAIR      24  16  71 CALM      30.49F                  
BURLINGTON VT  CLOUDY    26  16  65 S20G32    30.33F WCI  12          
MT. WASHINGTON MOSUNNY   10  -6  48 W35         N/A  WCI -13          
$$

NYZ052-076-081700-
EASTERN NEW YORK
  
CITY           SKY/WX    TMP DP  RH WIND       PRES   REMARKS
ALBANY         PTSUNNY   23  13  65 S8        30.46F WCI  14          
NEW YORK CITY  PTSUNNY   37  20  50 S10       30.52F WCI  30          
$$
 
ANZALL-081700-
MARINE OBSERVATIONS
  
STATION/POSITION TIME  TEMP    WIND        PRES    VSBY  WAVE
                       AIR SEA DIR/SP/G                  HT/PER
                 (UTC) (F)     (DEG/KT/KT) (MB)    (MI)  (FT/S)
BOSTON BUOY      1550   31 47  200/  8/ 12 1033.2F         1/ 2
BUZZARDS BAY     1500   31     160/  2/  2 1035.1F
NANTUCKET SOUND  1540   31 42              1034.7F
MASS BAY-STELLWA 1504   30 46  260/  8/ 12 1032.3S  1 7/8  1/ 4
ISLE OF SHOALS   1500   25     250/ 13/ 15 1033.3R
S OF BLOCK IS    1600      52                N/A           1/ 7
$$

......................KEY.........................
  SKY/WX - SKY CONDITION/PRESENT WEATHER
  TMP    - TEMPERATURE IN FAHRENHEIT
  DWPT   - DEWPOINT IN FAHRENHEIT
  RH     - RELATIVE HUMIDITY IN PERCENT
  WIND   - DIRECTION AND SPEED IN MPH
  PRES   - MEAN SEA LEVEL PRESSURE IN INCHES OF HG
  WCI    - WIND CHILL INDEX
  VSB    - VISIBILITY IN MILES
  HX     - HEAT INDEX
  TC     - TEMPERATURE IN CELSIUS
  VRB    - VARIABLE WIND DIRECTION
  N/A    - NOT AVAILABLE
  
      

Other recent Regional Weather Roundups

Tue Dec 10, 4:10pm

Tue Dec 10, 4:01pm

Tue Dec 10, 3:10pm

Tue Dec 10, 3:01pm

Tue Dec 10, 2:10pm

Tue Dec 10, 2:01pm

Tue Dec 10, 1:10pm

Tue Dec 10, 1:00pm

Tue Dec 10, 12:10pm

Tue Dec 10, 12:00pm

Tue Dec 10, 11:10am

Tue Dec 10, 11:00am

Tue Dec 10, 10:10am

Tue Dec 10, 10:00am

Tue Dec 10, 9:10am

Tue Dec 10, 9:01am

Tue Dec 10, 8:10am

Tue Dec 10, 8:00am

Tue Dec 10, 7:10am

Tue Dec 10, 7:00am

Tue Dec 10, 6:10am

Tue Dec 10, 6:00am

Tue Dec 10, 5:10am

Tue Dec 10, 5:00am

Tue Dec 10, 4:10am

Tue Dec 10, 4:00am

Tue Dec 10, 3:10am

Tue Dec 10, 3:00am

Tue Dec 10, 2:10am

Tue Dec 10, 2:01am

Tue Dec 10, 1:10am

Tue Dec 10, 1:00am

Tue Dec 10, 12:10am

Tue Dec 10, 12:01am

Mon Dec 9, 11:10pm

Mon Dec 9, 11:01pm

Mon Dec 9, 10:10pm

Mon Dec 9, 10:00pm

Mon Dec 9, 9:10pm

Mon Dec 9, 9:01pm

Mon Dec 9, 8:10pm

Mon Dec 9, 8:01pm

Mon Dec 9, 7:10pm

Mon Dec 9, 7:00pm

Mon Dec 9, 6:10pm

Mon Dec 9, 6:00pm

Mon Dec 9, 5:10pm

Mon Dec 9, 5:01pm

Mon Dec 9, 4:10pm

Mon Dec 9, 4:01pm

Mon Dec 9, 3:10pm

Mon Dec 9, 3:01pm

Mon Dec 9, 2:10pm

Mon Dec 9, 2:00pm

Mon Dec 9, 1:10pm

Mon Dec 9, 1:00pm

Mon Dec 9, 12:10pm

Mon Dec 9, 12:00pm

Mon Dec 9, 11:10am

Mon Dec 9, 11:00am

Mon Dec 9, 10:10am

Mon Dec 9, 10:00am

Mon Dec 9, 9:10am

Mon Dec 9, 9:00am

Mon Dec 9, 8:10am

Mon Dec 9, 8:00am

Mon Dec 9, 7:10am

Mon Dec 9, 7:00am

Mon Dec 9, 6:10am

Mon Dec 9, 6:00am

Mon Dec 9, 5:10am

Mon Dec 9, 5:00am

Mon Dec 9, 4:10am

Mon Dec 9, 4:00am

Mon Dec 9, 3:10am

Mon Dec 9, 3:00am

Mon Dec 9, 2:10am

Mon Dec 9, 2:00am

Mon Dec 9, 1:10am

Mon Dec 9, 1:00am

Mon Dec 9, 12:10am

Mon Dec 9, 12:00am

Sun Dec 8, 11:10pm

Sun Dec 8, 11:00pm

Sun Dec 8, 10:10pm

Sun Dec 8, 10:01pm

Sun Dec 8, 9:10pm

Sun Dec 8, 9:01pm

Sun Dec 8, 8:10pm

Sun Dec 8, 8:00pm

Sun Dec 8, 7:10pm

Sun Dec 8, 7:00pm

Sun Dec 8, 6:10pm

Sun Dec 8, 6:01pm

Sun Dec 8, 5:10pm

Sun Dec 8, 5:00pm

Sun Dec 8, 4:10pm

Sun Dec 8, 4:01pm

Sun Dec 8, 3:10pm

Sun Dec 8, 3:01pm

Sun Dec 8, 2:10pm

Sun Dec 8, 2:01pm

Sun Dec 8, 1:10pm

Sun Dec 8, 1:00pm

Sun Dec 8, 12:10pm

Sun Dec 8, 12:01pm

Sun Dec 8, 11:00am

Sun Dec 8, 10:10am

Sun Dec 8, 10:01am

Sun Dec 8, 9:10am

Sun Dec 8, 9:00am

Sun Dec 8, 8:10am

Sun Dec 8, 8:00am

Sun Dec 8, 7:10am

Sun Dec 8, 7:00am

Sun Dec 8, 6:10am

Sun Dec 8, 6:00am

Sun Dec 8, 5:10am

Sun Dec 8, 5:00am

Sun Dec 8, 4:10am

Sun Dec 8, 4:00am

Sun Dec 8, 3:10am

Sun Dec 8, 3:00am

Sun Dec 8, 2:10am

Sun Dec 8, 2:00am

Sun Dec 8, 1:10am

Sun Dec 8, 1:00am

Sun Dec 8, 12:10am

Sun Dec 8, 12:01am

Sat Dec 7, 11:10pm

Sat Dec 7, 11:00pm

Sat Dec 7, 10:10pm

Sat Dec 7, 10:00pm

Sat Dec 7, 9:10pm

Sat Dec 7, 9:00pm

Sat Dec 7, 8:10pm

Sat Dec 7, 8:00pm

Sat Dec 7, 7:10pm

Sat Dec 7, 7:00pm

Sat Dec 7, 6:10pm

Sat Dec 7, 6:00pm

Sat Dec 7, 5:10pm

Sat Dec 7, 5:00pm

Meta data:

ID: c056efde-3c3f-416d-91fc-b2fc104327d6
Link: https://api.weather.gov/products/c056efde-3c3f-416d-91fc-b2fc104327d6